Regional Weather Roundup
Issued by NWS

Home | Current Version | Previous Version | Graphics & Text | Print | Product List | Glossary On
Versions: 1 2 3 4 5 6 7 8 9 10 11 12 13 14 15 16 17 18 19 20 21 22 23 24 25 26 27 28 29 30 31 32 33 34 35 36 37 38 39 40 41 42 43 44 45 46 47 48 49 50
000
ASUS43 KDMX 020907
RWRIA

WEATHER ROUNDUP FOR IOWA
NATIONAL WEATHER SERVICE DES MOINES IA
400 AM CDT SUN AUG 02 2015

NOTE: "FAIR" INDICATES FEW OR NO CLOUDS BELOW 12,000 FEET WITH NO
SIGNIFICANT WEATHER AND/OR OBSTRUCTIONS TO VISIBILITY.

* - THESE STATIONS ARE NOT NWS STATIONS...THUS NOT UNDER NWS
QUALITY CONTROL.  THEY ALSO DO NOT REPORT WEATHER SUCH
AS PRECIPITATION OR FOG.

IAZ001>003-012>014-020>022-031>034-043>046-021000-
   NORTHWEST IOWA

CITY           SKY/WX    TMP DP  RH WIND       PRES   REMARKS
CARROLL *      PTCLDY    70  63  78 S14G21    29.83F
CHEROKEE *     CLEAR     66  66 100 S6        29.82S
DENISON *      CLEAR     70  66  88 S9G16     29.81F
LE MARS *      CLEAR     68  66  94 S7        29.81F
ORANGE CITY *  CLEAR     64  63  94 SW8       29.80F
SHELDON *      CLEAR     68  64  88 S6        29.78F
SIOUX CITY     PTCLDY    69  64  84 SE5       29.81F
SPENCER        CLEAR     70  65  84 SW9       29.80F
STORM LAKE *   PTCLDY    70  70 100 S9        29.83F
$$

IAZ055>058-069>071-079>083-090>094-021000-
   SOUTHWEST IOWA

CITY           SKY/WX    TMP DP  RH WIND       PRES   REMARKS
ATLANTIC *     MOCLDY    68  63  83 S7        29.86F
AUDUBON *      CLEAR     68  63  83 S6        29.87F
CLARINDA *     CLEAR     68  63  83 S5        29.90F
COUNCIL BLFS *   N/A     73  68  83 S12G18    29.86F
CRESTON *      PTCLDY    68  61  77 SE5       29.90F
HARLAN  *      CLEAR     68  68 100 S8        29.89F
LAMONI           N/A     70  60  70 SW12      29.88F
RED OAK *      CLEAR     68  64  88 S6        29.87F
SHENANDOAH *     N/A     68  64  88 SW6       29.88F
$$

IAZ047>049-059>061-072>074-084-021000-
   CENTRAL IOWA

CITY           SKY/WX    TMP DP  RH WIND       PRES   REMARKS
AMES           CLEAR     68  65  90 SW7       29.84F
ANKENY *       CLEAR     73  63  68 SW10      29.84F
CHARITON *     MOCLDY    70  63  78 SW8       29.88F
DES MOINES     PTCLDY    73  62  68 SW10      29.85F
GRINNELL*      CLEAR     70  64  83 SW6       29.86F
KNOXVILLE *    CLEAR     72  64  78 SW8       29.85F
MARSHALLTOWN     N/A     70  66  87 SW9       29.84F
PELLA *        CLEAR     73  66  78 SW7       29.87F
PERRY *          N/A     73  61  64 SW10G16   29.85F
$$

IAZ004>006-015-016-023>025-035-036-021000-
   NORTH CENTRAL IOWA

CITY           SKY/WX    TMP DP  RH WIND       PRES   REMARKS
ALGONA *       CLEAR     68  66  94 SW10      29.81F
CLARION *      CLEAR     70  66  88 SW10      29.82F
ESTHERVILLE    CLEAR     69  65  86 SW12G20   29.78F
FORT DODGE *   CLEAR     70  64  83 SW8       29.83F
MASON CITY     PTCLDY    72  68  87 SW17G25   29.82F
FOREST CITY *  CLEAR     68  68 100 SW9       29.80F
IOWA FALLS *     N/A     70  66  88 SW9       29.85F
$$

IAZ007>011-017>019-026>030-037>042-050>054-066-021000-
   NORTHEAST IOWA

CITY           SKY/WX    TMP DP  RH WIND       PRES   REMARKS
CEDAR RAPIDS   CLEAR     67  67 100 SW6       29.85F
CHARLES CITY * CLEAR     72  72 100 SW13      29.82F
CLINTON *      PTCLDY    68  66  94 SW6       29.88F
DECORAH *      PTCLDY    72  70  94 SW8       29.80S
DUBUQUE        CLEAR     70  68  93 SW13      29.84F
MONTICELLO *   CLEAR     70  68  94 SW6       29.84F
OELWEIN *      CLEAR     70  70 100 SW7       29.84S
WATERLOO       CLEAR     73  68  84 SW15      29.81F
$$

IAZ064-065-067-068-078-021000-
   EAST CENTRAL IOWA

CITY           SKY/WX    TMP DP  RH WIND       PRES   REMARKS
DAVENPORT      CLEAR     71  69  93 SW6       29.87F
IOWA CITY      CLEAR     68  67  96 SE5       29.87F
MT. PLEASANT * CLEAR     68  64  88 S5        29.90F
MUSCATINE *    CLEAR     70  68  94 S7        29.88F
QUAD CITIES    CLEAR     71  68  90 CALM      29.87F
$$

IAZ062-063-075>077-085>089-095>099-021000-
   SOUTHEAST IOWA

CITY           SKY/WX    TMP DP  RH WIND       PRES   REMARKS
BURLINGTON     CLEAR     67  66  97 SW7       29.90S
FAIRFIELD *    CLEAR     68  64  88 S7        29.88F
FORT MADISON * CLEAR     66  64  94 S7        29.92S
KEOKUK *       CLEAR     68  64  88 SW5       29.91S
OSKALOOSA *      N/A     68  64  88 S3        29.87F
CENTERVILLE *  CLEAR     66  64  94 S8        29.91F
OTTUMWA        CLEAR     68  67  96 S8        29.85F
WASHINGTON *   CLEAR     68  68 100 S7        29.89F
$$

ABBREVIATIONS USED IN REMARKS
   TC - TEMPERATURES IN CELSIUS
  WCI - WIND CHILL INDEX
   HX - HEAT INDEX
  VSB - VISIBILITY
$$




USA.gov is the U.S. government's official web portal to all federal, state and local government web resources and services.